DECAYED

TITAN 3C TRANSTAGE DEB, 1672 (Decayed)

Orbit data source: Space-Track

TITAN 3C TRANSTAGE DEB, 1672 was space debris in LEO originally from a launch on Fri, 15 Oct 1965 UTC launched from the Air Force Eastern Test Range (AFETR). Debris objects in space refer to the collection of defunct objects orbiting the Earth. Examples of debris include non-operational satellites, rocket bodies, and fragments generated from explosions, collisions, or faulty payload assembly.

Not visible in the next 10 days
TITAN 3C TRANSTAGE DEB details
Identifier
1672, 1965-082AK
Orbit
Decayed
Last TLE update3 months ago
Origin
Flag of USUSAF SSD (US)
ManufacturerUnknown
MissionDecayed spacecraft
Bus & MotorUnknown
MassUnknown
Launch date (UTC)
1965-10-15 (59 years ago)
Launch vehicleUnknown
Launch site
Air Force Eastern Test Range (AFETR)
Object type
Payload
Rocket body
Debris
Shape & HBRUnknown
Radar Cross Section0.160 m², Medium (>0.1 m² and < 1m²)

Expand to show TLE details & history

TLE from 3 months ago
0 TITAN 3C TRANSTAGE DEB
1  1672U 65082AK  24261.96163434  .08108025  19368+0  14883-1 0  9993
2  1672  32.3347 209.3354 0009789 224.3317 135.6591 16.07032588 80144
Epoch: 2024-09-17T23:04Z
Definitive object data (Epoch: 2024-09-17T23:04:45.206Z)
Latitude0.00001°
Longitude-134.22172°
Altitude258.226 km
Speed7.752 km/s
True Right ascension13h 57m 20s
True Declination0° 00' 00"
Sunlit
Object was in daylight at TLE epoch
Visualization observer readout
Observer readout values are unavailable because the object's trajectory could not be propagated. This is usually caused when the trajectory data is faulty or the object's orbit has decayed.
Visualization observer readout
Observer readout values are unavailable because the object's trajectory could not be propagated. This is usually caused when the trajectory data is faulty or the object's orbit has decayed.
Orbital elements
Apogee altitude265.289 km
Perigee altitude252.295 km
Semi-major axis6,636.929 km
Eccentricity0.0009789
Inclination32.3347°
RAAN209.3354°
Arg. of periapsis224.3317°
True anomaly135.73743°
Mean anomaly135.6591°
Eccentric anomaly135.69827°
Mean motion4.01414 °/min
BSTAR0.014883
Orbital period89.68 mins
Loading maneuver chart data...

TITAN 3C TRANSTAGE DEB Visibility forecast

Observer location: undefined°, undefined

This satellite is decayed
Span
Click to sort rows by Start time (UTC) header in descending order
Start Az.
Max El. time (UTC)
Max El. Az.
Max El.
End time (UTC)
End Az.
|